Year,Month,Day,Hour,Minute,Value (Times are PST for temperature in C)
2007,10,15,00,00,9.90
2007,10,15,00,01,9.90
2007,10,15,00,02,10.00
2007,10,15,00,03,10.00
2007,10,15,00,04,10.00
2007,10,15,00,05,10.00
2007,10,15,00,06,10.00
2007,10,15,00,07,10.00
2007,10,15,00,08,10.00
2007,10,15,00,09,10.00
2007,10,15,00,10,10.00
2007,10,15,00,11,10.00
2007,10,15,00,12,10.10
2007,10,15,00,13,10.10
2007,10,15,00,14,10.10
2007,10,15,00,15,10.10
2007,10,15,00,16,10.10
2007,10,15,00,17,10.10
2007,10,15,00,18,10.10
2007,10,15,00,19,10.10
2007,10,15,00,20,10.10
2007,10,15,00,21,10.10
2007,10,15,00,22,10.10
2007,10,15,00,23,10.00
2007,10,15,00,24,10.00
2007,10,15,00,25,10.00
2007,10,15,00,26,10.00
2007,10,15,00,27,10.00
2007,10,15,00,28,10.00
2007,10,15,00,29,10.00
2007,10,15,00,30,10.00
2007,10,15,00,31,10.00
2007,10,15,00,32,10.00
2007,10,15,00,33,10.00
2007,10,15,00,34,10.00
2007,10,15,00,35,10.10
2007,10,15,00,36,10.10
2007,10,15,00,37,10.10
2007,10,15,00,38,10.00
2007,10,15,00,39,10.00
2007,10,15,00,40,10.00
2007,10,15,00,41,10.00
2007,10,15,00,42,10.00
2007,10,15,00,43,10.00
2007,10,15,00,44,10.00
2007,10,15,00,45,10.00
2007,10,15,00,46,9.90
2007,10,15,00,47,9.90
2007,10,15,00,48,9.90
2007,10,15,00,49,9.90
2007,10,15,00,50,9.90
2007,10,15,00,51,9.90
2007,10,15,00,52,9.90
2007,10,15,00,53,9.90
2007,10,15,00,54,9.90
2007,10,15,00,55,9.90
2007,10,15,00,56,9.90
2007,10,15,00,57,9.90
2007,10,15,00,58,9.90
2007,10,15,00,59,9.90
2007,10,15,01,00,9.90
2007,10,15,01,01,9.90
2007,10,15,01,02,9.90
2007,10,15,01,03,9.90
2007,10,15,01,04,9.90
2007,10,15,01,05,9.90
2007,10,15,01,06,9.90
2007,10,15,01,07,9.90
2007,10,15,01,08,9.90
2007,10,15,01,09,9.90
2007,10,15,01,10,9.90
2007,10,15,01,11,9.90
2007,10,15,01,12,9.90
2007,10,15,01,13,9.90
2007,10,15,01,14,9.90
2007,10,15,01,15,10.00
2007,10,15,01,16,10.00
2007,10,15,01,17,10.00
2007,10,15,01,18,10.00
2007,10,15,01,19,10.00
2007,10,15,01,20,10.00
2007,10,15,01,21,10.00
2007,10,15,01,22,10.10
2007,10,15,01,23,10.10
2007,10,15,01,24,10.10
2007,10,15,01,25,10.10
2007,10,15,01,26,10.10
2007,10,15,01,27,10.10
2007,10,15,01,28,10.20
2007,10,15,01,29,10.20
2007,10,15,01,30,10.20
2007,10,15,01,31,10.20
2007,10,15,01,32,10.20
2007,10,15,01,33,10.20
2007,10,15,01,34,10.20
2007,10,15,01,35,10.20
2007,10,15,01,36,10.20
2007,10,15,01,37,10.20
2007,10,15,01,38,10.30
2007,10,15,01,39,10.30
2007,10,15,01,40,10.30
2007,10,15,01,41,10.30
2007,10,15,01,42,10.30
2007,10,15,01,43,10.30
2007,10,15,01,44,10.30
2007,10,15,01,45,10.30
2007,10,15,01,46,10.30
2007,10,15,01,47,10.30
2007,10,15,01,48,10.30
2007,10,15,01,49,10.30
2007,10,15,01,50,10.30
2007,10,15,01,51,10.30
2007,10,15,01,52,10.30
2007,10,15,01,53,10.30
2007,10,15,01,54,10.30
2007,10,15,01,55,10.30
2007,10,15,01,56,10.40
2007,10,15,01,57,10.40
2007,10,15,01,58,10.40
2007,10,15,01,59,10.40
2007,10,15,02,00,10.40
2007,10,15,02,01,10.40
2007,10,15,02,02,10.40
2007,10,15,02,03,10.40
2007,10,15,02,04,10.40
2007,10,15,02,05,10.30
2007,10,15,02,06,10.30
2007,10,15,02,07,10.30
2007,10,15,02,08,10.30
2007,10,15,02,09,10.30
2007,10,15,02,10,10.20
2007,10,15,02,11,10.20
2007,10,15,02,12,10.20
2007,10,15,02,13,10.10
2007,10,15,02,14,10.10
2007,10,15,02,15,10.00
2007,10,15,02,16,10.00
2007,10,15,02,17,9.90
2007,10,15,02,18,9.90
2007,10,15,02,19,9.80
2007,10,15,02,20,9.80
2007,10,15,02,21,9.80
2007,10,15,02,22,9.70
2007,10,15,02,23,9.70
2007,10,15,02,24,9.70
2007,10,15,02,25,9.70
2007,10,15,02,26,9.60
2007,10,15,02,27,9.60
2007,10,15,02,28,9.60
2007,10,15,02,29,9.60
2007,10,15,02,30,9.50
2007,10,15,02,31,9.50
2007,10,15,02,32,9.50
2007,10,15,02,33,9.50
2007,10,15,02,34,9.50
2007,10,15,02,35,9.50
2007,10,15,02,36,9.50
2007,10,15,02,37,9.50
2007,10,15,02,38,9.50
2007,10,15,02,39,9.60
2007,10,15,02,40,9.60
2007,10,15,02,41,9.60
2007,10,15,02,42,9.60
2007,10,15,02,43,9.70
2007,10,15,02,44,9.70
2007,10,15,02,45,9.70
2007,10,15,02,46,9.80
2007,10,15,02,47,9.80
2007,10,15,02,48,9.80
2007,10,15,02,49,9.80
2007,10,15,02,50,9.80
2007,10,15,02,51,9.90
2007,10,15,02,52,9.90
2007,10,15,02,53,9.90
2007,10,15,02,54,9.90
2007,10,15,02,55,9.90
2007,10,15,02,56,9.90
2007,10,15,02,57,9.90
2007,10,15,02,58,9.90
2007,10,15,02,59,9.90
2007,10,15,03,00,9.90
2007,10,15,03,01,9.90
2007,10,15,03,02,9.90
2007,10,15,03,03,9.90
2007,10,15,03,04,9.90
2007,10,15,03,05,9.90
2007,10,15,03,06,9.90
2007,10,15,03,07,9.90
2007,10,15,03,08,9.90
2007,10,15,03,09,9.90
2007,10,15,03,10,9.90
2007,10,15,03,11,9.90
2007,10,15,03,12,9.90
2007,10,15,03,13,9.90
2007,10,15,03,14,9.90
2007,10,15,03,15,9.90
2007,10,15,03,16,9.90
2007,10,15,03,17,9.90
2007,10,15,03,18,9.90
2007,10,15,03,19,9.90
2007,10,15,03,20,9.90
2007,10,15,03,21,9.90
2007,10,15,03,22,9.90
2007,10,15,03,23,9.90
2007,10,15,03,24,9.90
2007,10,15,03,25,9.90
2007,10,15,03,26,9.90
2007,10,15,03,27,9.90
2007,10,15,03,28,9.90
2007,10,15,03,29,10.00
2007,10,15,03,30,10.00
2007,10,15,03,31,10.00
2007,10,15,03,32,10.00
2007,10,15,03,33,10.00
2007,10,15,03,34,10.00
2007,10,15,03,35,10.00
2007,10,15,03,36,10.00
2007,10,15,03,37,10.10
2007,10,15,03,38,10.10
2007,10,15,03,39,10.10
2007,10,15,03,40,10.10
2007,10,15,03,41,10.10
2007,10,15,03,42,10.10
2007,10,15,03,43,10.10
2007,10,15,03,44,10.10
2007,10,15,03,45,10.10
2007,10,15,03,46,10.10
2007,10,15,03,47,10.10
2007,10,15,03,48,10.10
2007,10,15,03,49,10.10
2007,10,15,03,50,10.20
2007,10,15,03,51,10.20
2007,10,15,03,52,10.20
2007,10,15,03,53,10.20
2007,10,15,03,54,10.20
2007,10,15,03,55,10.20
2007,10,15,03,56,10.20
2007,10,15,03,57,10.20
2007,10,15,03,58,10.20
2007,10,15,03,59,10.20
2007,10,15,04,00,10.20
2007,10,15,04,01,10.20
2007,10,15,04,02,10.20
2007,10,15,04,03,10.20
2007,10,15,04,04,10.20
2007,10,15,04,05,10.20
2007,10,15,04,06,10.20
2007,10,15,04,07,10.20
2007,10,15,04,08,10.20
2007,10,15,04,11,10.20
2007,10,15,04,18,10.20
2007,10,15,04,25,10.20
2007,10,15,04,27,10.20
2007,10,15,04,28,10.20
2007,10,15,04,29,10.20
2007,10,15,04,30,10.20
2007,10,15,04,31,10.20
2007,10,15,04,32,10.20
2007,10,15,04,33,10.20
2007,10,15,04,34,10.10
2007,10,15,04,35,10.10
2007,10,15,04,36,10.10
2007,10,15,04,37,10.10
2007,10,15,04,38,10.10
2007,10,15,04,39,10.10
2007,10,15,04,40,10.10
2007,10,15,04,41,10.10
2007,10,15,04,44,10.10
2007,10,15,04,49,10.10
2007,10,15,04,58,10.00
2007,10,15,05,00,10.00
2007,10,15,05,13,10.00
2007,10,15,05,16,10.00
2007,10,15,05,34,9.80
2007,10,15,05,37,9.80
2007,10,15,05,38,9.80
2007,10,15,05,39,9.80
2007,10,15,05,40,9.80
2007,10,15,05,41,9.70
2007,10,15,05,42,9.70
2007,10,15,05,43,9.70
2007,10,15,05,44,9.70
2007,10,15,05,45,9.70
2007,10,15,05,46,9.70
2007,10,15,05,47,9.70
2007,10,15,05,48,9.60
2007,10,15,05,49,9.60
2007,10,15,05,50,9.60
2007,10,15,05,51,9.60
2007,10,15,05,52,9.60
2007,10,15,05,53,9.50
2007,10,15,05,54,9.50
2007,10,15,05,55,9.50
2007,10,15,05,56,9.40
2007,10,15,05,57,9.40
2007,10,15,05,58,9.40
2007,10,15,05,59,9.40
2007,10,15,06,00,9.40
2007,10,15,06,01,9.40
2007,10,15,06,02,9.30
2007,10,15,06,03,9.30
2007,10,15,06,04,9.30
2007,10,15,06,05,9.30
2007,10,15,06,06,9.30
2007,10,15,06,07,9.30
2007,10,15,06,08,9.30
2007,10,15,06,09,9.30
2007,10,15,06,10,9.30
2007,10,15,06,11,9.20
2007,10,15,06,12,9.20
2007,10,15,06,13,9.20
2007,10,15,06,14,9.20
2007,10,15,06,15,9.20
2007,10,15,06,16,9.20
2007,10,15,06,17,9.20
2007,10,15,06,18,9.20
2007,10,15,06,19,9.20
2007,10,15,06,20,9.20
2007,10,15,06,21,9.20
2007,10,15,06,22,9.10
2007,10,15,06,23,9.10
2007,10,15,06,24,9.10
2007,10,15,06,25,9.10
2007,10,15,06,26,9.10
2007,10,15,06,27,9.10
2007,10,15,06,28,9.10
2007,10,15,06,29,9.10
2007,10,15,06,30,9.10
2007,10,15,06,31,9.10
2007,10,15,06,32,9.20
2007,10,15,06,33,9.20
2007,10,15,06,34,9.20
2007,10,15,06,35,9.20
2007,10,15,06,36,9.20
2007,10,15,06,37,9.20
2007,10,15,06,38,9.20
2007,10,15,06,39,9.20
2007,10,15,06,40,9.20
2007,10,15,06,41,9.20
2007,10,15,06,42,9.20
2007,10,15,06,43,9.20
2007,10,15,06,44,9.20
2007,10,15,06,45,9.20
2007,10,15,06,46,9.20
2007,10,15,06,47,9.20
2007,10,15,06,48,9.20
2007,10,15,06,49,9.20
2007,10,15,06,50,9.20
2007,10,15,06,51,9.20
2007,10,15,06,52,9.20
2007,10,15,06,53,9.20
2007,10,15,06,54,9.20
2007,10,15,06,55,9.20
2007,10,15,06,56,9.20
2007,10,15,06,57,9.20
2007,10,15,06,58,9.20
2007,10,15,06,59,9.20
2007,10,15,07,00,9.20
2007,10,15,07,01,9.20
2007,10,15,07,02,9.20
2007,10,15,07,03,9.20
2007,10,15,07,04,9.20
2007,10,15,07,05,9.20
2007,10,15,07,06,9.20
2007,10,15,07,07,9.20
2007,10,15,07,08,9.20
2007,10,15,07,09,9.10
2007,10,15,07,10,9.10
2007,10,15,07,11,9.10
2007,10,15,07,12,9.10
2007,10,15,07,13,9.10
2007,10,15,07,14,9.10
2007,10,15,07,15,9.10
2007,10,15,07,16,9.10
2007,10,15,07,17,9.10
2007,10,15,07,18,9.10
2007,10,15,07,19,9.10
2007,10,15,07,20,9.10
2007,10,15,07,21,9.10
2007,10,15,07,22,9.10
2007,10,15,07,23,9.10
2007,10,15,07,24,9.10
2007,10,15,07,25,9.10
2007,10,15,07,26,9.10
2007,10,15,07,27,9.10
2007,10,15,07,28,9.10
2007,10,15,07,29,9.10
2007,10,15,07,30,9.10
2007,10,15,07,31,9.10
2007,10,15,07,32,9.10
2007,10,15,07,33,9.10
2007,10,15,07,34,9.10
2007,10,15,07,35,9.10
2007,10,15,07,36,9.10
2007,10,15,07,38,9.10
2007,10,15,07,40,9.10
2007,10,15,07,45,9.10
2007,10,15,07,50,9.20
2007,10,15,08,06,9.10
2007,10,15,08,08,9.10
2007,10,15,08,15,9.10
2007,10,15,08,16,9.10
2007,10,15,08,17,9.10
2007,10,15,08,18,9.10
2007,10,15,08,19,9.10
2007,10,15,08,20,9.10
2007,10,15,08,21,9.10
2007,10,15,08,22,9.10
2007,10,15,08,23,9.20
2007,10,15,08,24,9.20
2007,10,15,08,25,9.20
2007,10,15,08,26,9.20
2007,10,15,08,27,9.20
2007,10,15,08,28,9.20
2007,10,15,08,29,9.20
2007,10,15,08,30,9.20
2007,10,15,08,31,9.20
2007,10,15,08,32,9.30
2007,10,15,08,33,9.30
2007,10,15,08,34,9.30
2007,10,15,08,35,9.30
2007,10,15,08,36,9.30
2007,10,15,08,37,9.30
2007,10,15,08,38,9.30
2007,10,15,08,39,9.30
2007,10,15,08,40,9.40
2007,10,15,08,41,9.40
2007,10,15,08,42,9.40
2007,10,15,08,43,9.40
2007,10,15,08,44,9.40
2007,10,15,08,45,9.50
2007,10,15,08,46,9.50
2007,10,15,08,47,9.60
2007,10,15,08,48,9.60
2007,10,15,08,49,9.60
2007,10,15,08,50,9.60
2007,10,15,08,51,9.60
2007,10,15,08,58,9.90
2007,10,15,09,02,10.10
2007,10,15,09,05,10.30
2007,10,15,09,06,10.30
2007,10,15,09,07,10.40
2007,10,15,09,08,10.50
2007,10,15,09,09,10.50
2007,10,15,09,10,10.50
2007,10,15,09,11,10.60
2007,10,15,09,12,10.60
2007,10,15,09,13,10.60
2007,10,15,09,14,10.70
2007,10,15,09,15,10.70
2007,10,15,09,16,10.70
2007,10,15,09,17,10.70
2007,10,15,09,18,10.70
2007,10,15,09,19,10.80
2007,10,15,09,20,10.80
2007,10,15,09,21,10.80
2007,10,15,09,22,10.80
2007,10,15,09,23,10.90
2007,10,15,09,24,10.90
2007,10,15,09,25,10.90
2007,10,15,09,26,10.90
2007,10,15,09,27,11.00
2007,10,15,09,28,11.00
2007,10,15,09,29,11.00
2007,10,15,09,30,11.10
2007,10,15,09,31,11.10
2007,10,15,09,32,11.10
2007,10,15,09,33,11.10
2007,10,15,09,34,11.10
2007,10,15,09,35,11.10
2007,10,15,09,36,11.10
2007,10,15,09,37,11.10
2007,10,15,09,38,11.10
2007,10,15,09,39,11.10
2007,10,15,09,40,11.00
2007,10,15,09,41,11.00
2007,10,15,09,42,11.00
2007,10,15,09,43,11.00
2007,10,15,09,44,11.00
2007,10,15,09,45,11.00
2007,10,15,09,46,10.90
2007,10,15,09,47,10.90
2007,10,15,09,48,10.90
2007,10,15,09,49,10.90
2007,10,15,09,50,10.90
2007,10,15,09,51,10.90
2007,10,15,09,52,10.90
2007,10,15,09,53,10.90
2007,10,15,09,54,10.90
2007,10,15,09,55,10.90
2007,10,15,09,56,10.90
2007,10,15,09,57,10.90
2007,10,15,09,58,10.90
2007,10,15,09,59,10.90
2007,10,15,10,00,10.90
2007,10,15,10,01,10.90
2007,10,15,10,02,10.90
2007,10,15,10,03,10.90
2007,10,15,10,04,10.80
2007,10,15,10,05,10.80
2007,10,15,10,06,10.80
2007,10,15,10,07,10.80
2007,10,15,10,08,10.80
2007,10,15,10,09,10.90
2007,10,15,10,10,10.90
2007,10,15,10,11,10.90
2007,10,15,10,12,10.90
2007,10,15,10,13,10.90
2007,10,15,10,14,10.90
2007,10,15,10,15,11.00
2007,10,15,10,16,11.00
2007,10,15,10,17,11.00
2007,10,15,10,18,11.10
2007,10,15,10,19,11.10
2007,10,15,10,20,11.10
2007,10,15,10,21,11.10
2007,10,15,10,22,11.10
2007,10,15,10,23,11.10
2007,10,15,10,24,11.10
2007,10,15,10,25,11.10
2007,10,15,10,26,11.10
2007,10,15,10,27,11.10
2007,10,15,10,28,11.10
2007,10,15,10,29,11.10
2007,10,15,10,30,11.20
2007,10,15,10,31,11.20
2007,10,15,10,32,11.20
2007,10,15,10,33,11.20
2007,10,15,10,34,11.30
2007,10,15,10,35,11.30
2007,10,15,10,36,11.30
2007,10,15,10,37,11.30
2007,10,15,10,38,11.30
2007,10,15,10,39,11.40
2007,10,15,10,40,11.40
2007,10,15,10,41,11.50
2007,10,15,10,42,11.50
2007,10,15,10,43,11.50
2007,10,15,10,44,11.60
2007,10,15,10,45,11.60
2007,10,15,10,46,11.60
2007,10,15,10,47,11.70
2007,10,15,10,48,11.70
2007,10,15,10,49,11.70
2007,10,15,10,50,11.70
2007,10,15,10,51,11.70
2007,10,15,10,52,11.70
2007,10,15,10,53,11.70
2007,10,15,10,54,11.70
2007,10,15,10,55,11.80
2007,10,15,10,56,11.80
2007,10,15,10,57,11.80
2007,10,15,10,58,11.80
2007,10,15,10,59,11.70
2007,10,15,11,00,11.70
2007,10,15,11,01,11.70
2007,10,15,11,02,11.60
2007,10,15,11,03,11.60
2007,10,15,11,04,11.60
2007,10,15,11,05,11.60
2007,10,15,11,06,11.50
2007,10,15,11,07,11.50
2007,10,15,11,08,11.50
2007,10,15,11,09,11.40
2007,10,15,11,10,11.50
2007,10,15,11,11,11.50
2007,10,15,11,12,11.50
2007,10,15,11,13,11.50
2007,10,15,11,14,11.60
2007,10,15,11,15,11.60
2007,10,15,11,16,11.60
2007,10,15,11,17,11.60
2007,10,15,11,18,11.60
2007,10,15,11,19,11.70
2007,10,15,11,20,11.70
2007,10,15,11,21,11.70
2007,10,15,11,22,11.70
2007,10,15,11,23,11.70
2007,10,15,11,24,11.70
2007,10,15,11,25,11.70
2007,10,15,11,26,11.70
2007,10,15,11,27,11.70
2007,10,15,11,28,11.80
2007,10,15,11,29,11.80
2007,10,15,11,30,11.80
2007,10,15,11,31,11.80
2007,10,15,11,32,11.90
2007,10,15,11,33,11.90
2007,10,15,11,34,11.90
2007,10,15,11,35,11.90
2007,10,15,11,36,11.90
2007,10,15,11,37,11.90
2007,10,15,11,38,11.90
2007,10,15,11,39,11.90
2007,10,15,11,40,11.80
2007,10,15,11,41,11.80
2007,10,15,11,42,11.80
2007,10,15,11,43,11.80
2007,10,15,11,44,11.80
2007,10,15,11,45,11.80
2007,10,15,11,46,11.80
2007,10,15,11,47,11.80
2007,10,15,11,48,11.80
2007,10,15,11,49,11.90
2007,10,15,11,50,11.90
2007,10,15,11,51,11.90
2007,10,15,11,52,12.00
2007,10,15,11,53,12.00
2007,10,15,11,54,12.00
2007,10,15,11,55,12.10
2007,10,15,11,56,12.10
2007,10,15,11,57,12.10
2007,10,15,11,58,12.10
2007,10,15,11,59,12.10
2007,10,15,12,00,12.10
2007,10,15,12,01,12.10
2007,10,15,12,02,12.10
2007,10,15,12,03,12.10
2007,10,15,12,04,12.10
2007,10,15,12,05,12.10
2007,10,15,12,06,12.10
2007,10,15,12,07,12.10
2007,10,15,12,08,12.10
2007,10,15,12,09,12.20
2007,10,15,12,10,12.20
2007,10,15,12,11,12.20
2007,10,15,12,12,12.30
2007,10,15,12,13,12.30
2007,10,15,12,14,12.20
2007,10,15,12,15,12.30
2007,10,15,12,16,12.30
2007,10,15,12,17,12.30
2007,10,15,12,18,12.30
2007,10,15,12,19,12.30
2007,10,15,12,20,12.30
2007,10,15,12,21,12.30
2007,10,15,12,22,12.40
2007,10,15,12,23,12.40
2007,10,15,12,24,12.40
2007,10,15,12,25,12.40
2007,10,15,12,26,12.40
2007,10,15,12,27,12.50
2007,10,15,12,28,12.60
2007,10,15,12,29,12.60
2007,10,15,12,30,12.70
2007,10,15,12,31,12.80
2007,10,15,12,32,13.00
2007,10,15,12,33,13.10
2007,10,15,12,34,13.20
2007,10,15,12,35,13.40
2007,10,15,12,36,13.50
2007,10,15,12,37,13.60
2007,10,15,12,38,13.60
2007,10,15,12,39,13.80
2007,10,15,12,40,13.80
2007,10,15,12,41,13.90
2007,10,15,12,42,13.90
2007,10,15,12,43,14.00
2007,10,15,12,44,13.90
2007,10,15,12,45,13.90
2007,10,15,12,46,13.90
2007,10,15,12,47,14.00
2007,10,15,12,48,14.00
2007,10,15,12,49,13.90
2007,10,15,12,50,13.80
2007,10,15,12,51,13.70
2007,10,15,12,52,13.70
2007,10,15,12,53,13.60
2007,10,15,12,54,13.60
2007,10,15,12,55,13.60
2007,10,15,12,56,13.60
2007,10,15,12,57,13.60
2007,10,15,12,58,13.60
2007,10,15,12,59,13.50
2007,10,15,13,00,13.40
2007,10,15,13,01,13.40
2007,10,15,13,02,13.40
2007,10,15,13,03,13.40
2007,10,15,13,04,13.40
2007,10,15,13,05,13.40
2007,10,15,13,06,13.40
2007,10,15,13,07,13.40
2007,10,15,13,08,13.40
2007,10,15,13,09,13.30
2007,10,15,13,10,13.30
2007,10,15,13,11,13.30
2007,10,15,13,12,13.30
2007,10,15,13,13,13.20
2007,10,15,13,14,13.20
2007,10,15,13,15,13.10
2007,10,15,13,16,13.10
2007,10,15,13,17,13.10
2007,10,15,13,18,13.00
2007,10,15,13,19,13.00
2007,10,15,13,20,13.00
2007,10,15,13,21,12.90
2007,10,15,13,22,12.90
2007,10,15,13,23,12.80
2007,10,15,13,24,12.80
2007,10,15,13,25,12.80
2007,10,15,13,26,12.80
2007,10,15,13,27,12.80
2007,10,15,13,28,12.80
2007,10,15,13,29,12.80
2007,10,15,13,30,12.80
2007,10,15,13,31,12.80
2007,10,15,13,32,12.90
2007,10,15,13,33,12.90
2007,10,15,13,34,12.90
2007,10,15,13,35,12.90
2007,10,15,13,36,13.00
2007,10,15,13,37,13.00
2007,10,15,13,38,13.10
2007,10,15,13,39,13.20
2007,10,15,13,40,13.20
2007,10,15,13,41,13.20
2007,10,15,13,42,13.20
2007,10,15,13,43,13.20
2007,10,15,13,44,13.20
2007,10,15,13,45,13.20
2007,10,15,13,46,13.20
2007,10,15,13,47,13.30
2007,10,15,13,48,13.30
2007,10,15,13,49,13.20
2007,10,15,13,50,13.20
2007,10,15,13,51,13.20
2007,10,15,13,52,13.20
2007,10,15,13,53,13.20
2007,10,15,13,54,13.20
2007,10,15,13,55,13.10
2007,10,15,13,56,13.00
2007,10,15,13,57,12.90
2007,10,15,13,58,12.90
2007,10,15,13,59,12.80
2007,10,15,14,00,12.80
2007,10,15,14,01,12.80
2007,10,15,14,02,12.80
2007,10,15,14,03,12.80
2007,10,15,14,04,12.80
2007,10,15,14,05,12.80
2007,10,15,14,06,12.80
2007,10,15,14,07,12.90
2007,10,15,14,08,13.00
2007,10,15,14,09,13.10
2007,10,15,14,10,13.20
2007,10,15,14,11,13.30
2007,10,15,14,12,13.40
2007,10,15,14,13,13.40
2007,10,15,14,14,13.50
2007,10,15,14,15,13.50
2007,10,15,14,16,13.60
2007,10,15,14,17,13.60
2007,10,15,14,18,13.40
2007,10,15,14,19,13.30
2007,10,15,14,20,13.20
2007,10,15,14,21,13.10
2007,10,15,14,22,13.00
2007,10,15,14,23,12.90
2007,10,15,14,24,12.80
2007,10,15,14,25,12.70
2007,10,15,14,26,12.70
2007,10,15,14,27,12.60
2007,10,15,14,28,12.60
2007,10,15,14,29,12.50
2007,10,15,14,30,12.40
2007,10,15,14,31,12.30
2007,10,15,14,32,12.30
2007,10,15,14,33,12.30
2007,10,15,14,34,12.30
2007,10,15,14,35,12.20
2007,10,15,14,36,12.20
2007,10,15,14,37,12.10
2007,10,15,14,38,12.10
2007,10,15,14,39,12.10
2007,10,15,14,40,12.00
2007,10,15,14,41,11.90
2007,10,15,14,42,11.90
2007,10,15,14,43,11.80
2007,10,15,14,44,11.80
2007,10,15,14,45,11.80
2007,10,15,14,46,11.80
2007,10,15,14,47,11.80
2007,10,15,14,48,11.80
2007,10,15,14,49,11.80
2007,10,15,14,50,11.80
2007,10,15,14,51,11.80
2007,10,15,14,52,11.80
2007,10,15,14,53,11.80
2007,10,15,14,54,11.80
2007,10,15,14,55,11.70
2007,10,15,14,56,11.70
2007,10,15,14,57,11.70
2007,10,15,14,58,11.70
2007,10,15,14,59,11.60
2007,10,15,15,00,11.60
2007,10,15,15,01,11.60
2007,10,15,15,02,11.60
2007,10,15,15,03,11.50
2007,10,15,15,04,11.50
2007,10,15,15,05,11.40
2007,10,15,15,06,11.40
2007,10,15,15,07,11.40
2007,10,15,15,08,11.40
2007,10,15,15,09,11.40
2007,10,15,15,10,11.40
2007,10,15,15,11,11.40
2007,10,15,15,12,11.40
2007,10,15,15,13,11.40
2007,10,15,15,14,11.40
2007,10,15,15,15,11.40
2007,10,15,15,16,11.40
2007,10,15,15,17,11.40
2007,10,15,15,18,11.30
2007,10,15,15,19,11.30
2007,10,15,15,20,11.30
2007,10,15,15,21,11.30
2007,10,15,15,22,11.30
2007,10,15,15,23,11.30
2007,10,15,15,24,11.20
2007,10,15,15,25,11.20
2007,10,15,15,26,11.20
2007,10,15,15,27,11.20
2007,10,15,15,28,11.10
2007,10,15,15,29,11.10
2007,10,15,15,30,11.10
2007,10,15,15,31,11.10
2007,10,15,15,32,11.00
2007,10,15,15,33,11.00
2007,10,15,15,34,11.00
2007,10,15,15,35,11.00
2007,10,15,15,36,11.00
2007,10,15,15,37,11.00
2007,10,15,15,38,11.00
2007,10,15,15,39,11.00
2007,10,15,15,40,11.00
2007,10,15,15,41,11.00
2007,10,15,15,42,10.90
2007,10,15,15,43,10.90
2007,10,15,15,44,10.90
2007,10,15,15,45,10.90
2007,10,15,15,46,10.90
2007,10,15,15,47,10.90
2007,10,15,15,48,10.90
2007,10,15,15,49,10.90
2007,10,15,15,50,10.80
2007,10,15,15,51,10.80
2007,10,15,15,52,10.80
2007,10,15,15,53,10.80
2007,10,15,15,54,10.80
2007,10,15,15,55,10.80
2007,10,15,15,56,10.80
2007,10,15,15,57,10.80
2007,10,15,15,58,10.80
2007,10,15,15,59,10.80
2007,10,15,16,00,10.80
2007,10,15,16,01,10.80
2007,10,15,16,02,10.80
2007,10,15,16,03,10.80
2007,10,15,16,04,10.80
2007,10,15,16,05,10.90
2007,10,15,16,06,10.90
2007,10,15,16,07,10.90
2007,10,15,16,08,10.90
2007,10,15,16,09,10.90
2007,10,15,16,10,10.90
2007,10,15,16,11,10.90
2007,10,15,16,12,10.90
2007,10,15,16,13,10.90
2007,10,15,16,14,10.90
2007,10,15,16,15,10.90
2007,10,15,16,16,10.90
2007,10,15,16,17,10.80
2007,10,15,16,18,10.80
2007,10,15,16,19,10.80
2007,10,15,16,20,10.80
2007,10,15,16,21,10.80
2007,10,15,16,22,10.80
2007,10,15,16,23,10.80
2007,10,15,16,24,10.70
2007,10,15,16,25,10.70
2007,10,15,16,26,10.70
2007,10,15,16,27,10.70
2007,10,15,16,28,10.70
2007,10,15,16,29,10.70
2007,10,15,16,30,10.70
2007,10,15,16,31,10.70
2007,10,15,16,32,10.70
2007,10,15,16,33,10.70
2007,10,15,16,34,10.80
2007,10,15,16,35,10.80
2007,10,15,16,36,10.80
2007,10,15,16,37,10.80
2007,10,15,16,38,10.80
2007,10,15,16,39,10.80
2007,10,15,16,40,10.80
2007,10,15,16,41,10.80
2007,10,15,16,42,10.80
2007,10,15,16,43,10.80
2007,10,15,16,44,10.80
2007,10,15,16,45,10.80
2007,10,15,16,46,10.80
2007,10,15,16,47,10.80
2007,10,15,16,48,10.70
2007,10,15,16,49,10.70
2007,10,15,16,50,10.70
2007,10,15,16,51,10.70
2007,10,15,16,52,10.70
2007,10,15,16,53,10.70
2007,10,15,16,54,10.70
2007,10,15,16,55,10.70
2007,10,15,16,56,10.60
2007,10,15,16,57,10.60
2007,10,15,16,58,10.60
2007,10,15,16,59,10.60
2007,10,15,17,00,10.60
2007,10,15,17,01,10.60
2007,10,15,17,02,10.60
2007,10,15,17,03,10.60
2007,10,15,17,04,10.50
2007,10,15,17,05,10.50
2007,10,15,17,06,10.50
2007,10,15,17,07,10.50
2007,10,15,17,08,10.40
2007,10,15,17,09,10.40
2007,10,15,17,10,10.40
2007,10,15,17,11,10.40
2007,10,15,17,12,10.40
2007,10,15,17,13,10.40
2007,10,15,17,14,10.40
2007,10,15,17,15,10.40
2007,10,15,17,16,10.40
2007,10,15,17,17,10.40
2007,10,15,17,18,10.40
2007,10,15,17,19,10.40
2007,10,15,17,20,10.40
2007,10,15,17,21,10.30
2007,10,15,17,22,10.30
2007,10,15,17,23,10.30
2007,10,15,17,24,10.30
2007,10,15,17,25,10.30
2007,10,15,17,26,10.30
2007,10,15,17,27,10.30
2007,10,15,17,28,10.30
2007,10,15,17,29,10.30
2007,10,15,17,30,10.30
2007,10,15,17,31,10.30
2007,10,15,17,32,10.30
2007,10,15,17,33,10.30
2007,10,15,17,34,10.30
2007,10,15,17,35,10.30
2007,10,15,17,36,10.30
2007,10,15,17,37,10.30
2007,10,15,17,38,10.30
2007,10,15,17,39,10.30
2007,10,15,17,40,10.30
2007,10,15,17,41,10.30
2007,10,15,17,42,10.30
2007,10,15,17,43,10.30
2007,10,15,17,44,10.30
2007,10,15,17,45,10.30
2007,10,15,17,46,10.30
2007,10,15,17,47,10.30
2007,10,15,17,48,10.20
2007,10,15,17,49,10.20
2007,10,15,17,50,10.20
2007,10,15,17,51,10.20
2007,10,15,17,52,10.20
2007,10,15,17,53,10.20
2007,10,15,17,54,10.20
2007,10,15,17,55,10.20
2007,10,15,17,56,10.20
2007,10,15,17,57,10.20
2007,10,15,17,58,10.20
2007,10,15,17,59,10.20
2007,10,15,18,00,10.20
2007,10,15,18,01,10.20
2007,10,15,18,02,10.20
2007,10,15,18,03,10.20
2007,10,15,18,04,10.20
2007,10,15,18,05,10.20
2007,10,15,18,06,10.20
2007,10,15,18,07,10.20
2007,10,15,18,08,10.10
2007,10,15,18,09,10.10
2007,10,15,18,10,10.10
2007,10,15,18,11,10.10
2007,10,15,18,12,10.10
2007,10,15,18,13,10.10
2007,10,15,18,14,10.10
2007,10,15,18,15,10.10
2007,10,15,18,16,10.10
2007,10,15,18,17,10.10
2007,10,15,18,18,10.10
2007,10,15,18,19,10.10
2007,10,15,18,20,10.10
2007,10,15,18,21,10.10
2007,10,15,18,22,10.00
2007,10,15,18,23,10.00
2007,10,15,18,24,10.00
2007,10,15,18,25,10.00
2007,10,15,18,26,10.00
2007,10,15,18,27,10.00
2007,10,15,18,28,10.00
2007,10,15,18,29,10.00
2007,10,15,18,30,10.00
2007,10,15,18,31,10.00
2007,10,15,18,32,10.00
2007,10,15,18,33,10.00
2007,10,15,18,34,10.00
2007,10,15,18,35,10.00
2007,10,15,18,36,10.00
2007,10,15,18,37,10.00
2007,10,15,18,38,9.90
2007,10,15,18,39,9.90
2007,10,15,18,40,9.90
2007,10,15,18,41,9.90
2007,10,15,18,42,9.90
2007,10,15,18,43,9.90
2007,10,15,18,44,9.90
2007,10,15,18,45,9.90
2007,10,15,18,46,9.90
2007,10,15,18,47,9.90
2007,10,15,18,48,9.90
2007,10,15,18,49,9.90
2007,10,15,18,50,9.90
2007,10,15,18,51,9.90
2007,10,15,18,52,9.90
2007,10,15,18,53,9.90
2007,10,15,18,54,9.90
2007,10,15,18,55,9.90
2007,10,15,18,56,9.90
2007,10,15,18,57,9.90
2007,10,15,18,58,9.90
2007,10,15,18,59,9.90
2007,10,15,19,00,9.90
2007,10,15,19,01,9.90
2007,10,15,19,02,9.80
2007,10,15,19,03,9.80
2007,10,15,19,04,9.80
2007,10,15,19,05,9.80
2007,10,15,19,06,9.80
2007,10,15,19,07,9.80
2007,10,15,19,08,9.80
2007,10,15,19,09,9.80
2007,10,15,19,10,9.80
2007,10,15,19,11,9.80
2007,10,15,19,12,9.80
2007,10,15,19,13,9.80
2007,10,15,19,14,9.80
2007,10,15,19,15,9.80
2007,10,15,19,16,9.80
2007,10,15,19,17,9.80
2007,10,15,19,18,9.80